AEE772 LGTS-LIRF

Flight info

Callsign AEE772
Flight time 1h 25m
Altitude 38000
Route EDASI UM603 PINDO DCT PAPIZ DCT EKTOL DCT AMSOR DCT IPKAM DCT TEA DCT SIPRO/N0350F180 Z803 LAT
Aircraft A20N/M-SDE2E3FGHIRWXY/LB1

Departure

Time 2026-05-06 07:52
Airport Thessaloniki Macedonia International Airport (LGTS)

Arrival

Time 2026-05-06 09:17
Airport Rome–Fiumicino Leonardo da Vinci International Airport (LIRF)
Time Latitude Longitude Altitude Speed Heading
2026-05-06 07:23 40.52322 22.97575 17 ft 0 kts 45°
2026-05-06 07:44 40.52311 22.97561 28 ft 2 kts 44°
2026-05-06 07:44 40.52299 22.97545 28 ft 2 kts 54°
2026-05-06 07:44 40.52292 22.97526 28 ft 2 kts 78°
2026-05-06 07:45 40.52292 22.97505 28 ft 2 kts 107°
2026-05-06 07:45 40.52296 22.97491 28 ft 1 kts 129°
2026-05-06 07:45 40.52297 22.97489 28 ft 0 kts 131°
2026-05-06 07:48 40.52283 22.97508 28 ft 7 kts 134°
2026-05-06 07:48 40.52221 22.97590 28 ft 17 kts 135°
2026-05-06 07:48 40.52133 22.97678 28 ft 16 kts 139°
2026-05-06 07:49 40.52043 22.97793 28 ft 19 kts 134°
2026-05-06 07:49 40.51984 22.97948 28 ft 20 kts 106°
2026-05-06 07:49 40.51946 22.98142 28 ft 23 kts 104°
2026-05-06 07:49 40.51906 22.98353 28 ft 24 kts 104°
2026-05-06 07:50 40.51864 22.98575 28 ft 24 kts 105°
2026-05-06 07:50 40.51816 22.98707 28 ft 14 kts 172°
2026-05-06 07:50 40.51712 22.98682 29 ft 12 kts 193°
2026-05-06 07:50 40.51686 22.98630 28 ft 8 kts 283°
2026-05-06 07:51 40.51688 22.98620 28 ft 0 kts 282°
2026-05-06 07:51 40.51689 22.98613 28 ft 6 kts 282°
2026-05-06 07:51 40.51769 22.98183 28 ft 94 kts 283°
2026-05-06 07:51 40.51991 22.97026 41 ft 164 kts 284°
2026-05-06 07:52 40.52308 22.95405 482 ft 188 kts 284°
2026-05-06 07:52 40.52640 22.93721 1455 ft 192 kts 285°
2026-05-06 07:52 40.52964 22.92033 2476 ft 193 kts 279°
2026-05-06 07:52 40.52993 22.90290 3571 ft 188 kts 263°
2026-05-06 07:53 40.52698 22.88637 4624 ft 187 kts 255°
2026-05-06 07:53 40.52453 22.86968 5529 ft 191 kts 265°
2026-05-06 07:53 40.52529 22.85214 6247 ft 197 kts 279°
2026-05-06 07:53 40.52767 22.83368 6791 ft 213 kts 279°
2026-05-06 07:54 40.53037 22.81359 7262 ft 233 kts 279°
2026-05-06 07:54 40.53322 22.79140 7710 ft 258 kts 279°
2026-05-06 07:54 40.53619 22.76670 8310 ft 279 kts 278°
2026-05-06 07:54 40.53909 22.74140 9246 ft 284 kts 278°
2026-05-06 07:55 40.54196 22.71561 10244 ft 288 kts 278°
2026-05-06 07:55 40.54491 22.68876 10855 ft 307 kts 278°
2026-05-06 07:55 40.54811 22.65947 11269 ft 331 kts 278°
2026-05-06 07:55 40.55143 22.62903 12031 ft 339 kts 278°
2026-05-06 07:56 40.55476 22.59837 13019 ft 340 kts 278°
2026-05-06 07:56 40.55813 22.56741 13963 ft 343 kts 278°
2026-05-06 07:56 40.56040 22.54632 14485 ft 346 kts 278°
2026-05-06 07:56 40.56378 22.51479 15342 ft 349 kts 279°
2026-05-06 07:57 40.56719 22.48316 16161 ft 352 kts 279°
2026-05-06 07:57 40.57064 22.45085 16972 ft 356 kts 279°
2026-05-06 07:57 40.57409 22.41867 17785 ft 359 kts 279°
2026-05-06 07:57 40.57758 22.38607 18550 ft 363 kts 279°
2026-05-06 07:58 40.58111 22.35290 19242 ft 365 kts 279°
2026-05-06 07:58 40.58466 22.31943 19915 ft 369 kts 279°
2026-05-06 07:58 40.58821 22.28591 20602 ft 372 kts 280°
2026-05-06 07:58 40.59177 22.25226 21253 ft 375 kts 280°
2026-05-06 07:59 40.59537 22.21812 21908 ft 379 kts 280°
2026-05-06 07:59 40.59900 22.18350 22561 ft 382 kts 280°
2026-05-06 07:59 40.60266 22.14863 23207 ft 386 kts 280°
2026-05-06 07:59 40.60634 22.11340 23814 ft 390 kts 280°
2026-05-06 08:00 40.61004 22.07787 24387 ft 392 kts 280°
2026-05-06 08:00 40.61373 22.04232 24944 ft 394 kts 280°
2026-05-06 08:00 40.61747 22.00617 25513 ft 396 kts 280°
2026-05-06 08:00 40.62118 21.97027 25986 ft 400 kts 280°
2026-05-06 08:01 40.62490 21.93408 26509 ft 402 kts 280°
2026-05-06 08:01 40.62867 21.89729 27015 ft 404 kts 280°
2026-05-06 08:01 40.63242 21.86055 27478 ft 408 kts 280°
2026-05-06 08:01 40.63618 21.82368 27958 ft 410 kts 280°
2026-05-06 08:02 40.64003 21.78583 28410 ft 413 kts 280°
2026-05-06 08:02 40.64381 21.74847 28855 ft 415 kts 280°
2026-05-06 08:02 40.64764 21.71046 29282 ft 418 kts 280°
2026-05-06 08:02 40.65146 21.67250 29686 ft 420 kts 280°
2026-05-06 08:03 40.65534 21.63379 30116 ft 423 kts 280°
2026-05-06 08:03 40.65914 21.59576 30465 ft 425 kts 280°
2026-05-06 08:03 40.66301 21.55696 30826 ft 427 kts 280°
2026-05-06 08:03 40.66689 21.51767 31159 ft 429 kts 280°
2026-05-06 08:04 40.67071 21.47900 31560 ft 429 kts 280°
2026-05-06 08:04 40.67458 21.43983 32045 ft 428 kts 279°
2026-05-06 08:04 40.67839 21.40117 32530 ft 426 kts 279°
2026-05-06 08:04 40.68216 21.36277 33015 ft 424 kts 279°
2026-05-06 08:05 40.68597 21.32381 33442 ft 423 kts 279°
2026-05-06 08:05 40.68968 21.28566 33890 ft 422 kts 279°
2026-05-06 08:05 40.69339 21.24732 34316 ft 420 kts 279°
2026-05-06 08:05 40.69709 21.20904 34669 ft 419 kts 279°
2026-05-06 08:06 40.70073 21.17118 35031 ft 418 kts 279°
2026-05-06 08:06 40.70440 21.13286 35372 ft 417 kts 279°
2026-05-06 08:06 40.70801 21.09499 35701 ft 416 kts 279°
2026-05-06 08:06 40.71159 21.05742 36075 ft 415 kts 279°
2026-05-06 08:07 40.71514 21.01977 36381 ft 414 kts 279°
2026-05-06 08:07 40.71872 20.98178 36690 ft 413 kts 279°
2026-05-06 08:07 40.72228 20.94423 36992 ft 413 kts 278°
2026-05-06 08:07 40.72580 20.90688 37308 ft 412 kts 278°
2026-05-06 08:08 40.72931 20.86934 37612 ft 411 kts 278°
2026-05-06 08:08 40.73277 20.83220 37917 ft 409 kts 278°
2026-05-06 08:08 40.73627 20.79449 38098 ft 409 kts 278°
2026-05-06 08:08 40.73967 20.75767 38100 ft 407 kts 278°
2026-05-06 08:09 40.74647 20.68373 38102 ft 407 kts 278°
2026-05-06 08:09 40.75327 20.60915 38109 ft 408 kts 278°
2026-05-06 08:10 40.75996 20.53518 38105 ft 408 kts 278°
2026-05-06 08:10 40.76665 20.46063 38115 ft 409 kts 278°
2026-05-06 08:11 40.77330 20.38610 38102 ft 408 kts 278°
2026-05-06 08:11 40.77990 20.31149 38104 ft 409 kts 278°
2026-05-06 08:12 40.78645 20.23700 38101 ft 408 kts 278°
2026-05-06 08:12 40.79296 20.16252 38102 ft 408 kts 278°
2026-05-06 08:13 40.79940 20.08801 38104 ft 409 kts 277°
2026-05-06 08:13 40.80583 20.01325 38099 ft 409 kts 277°
2026-05-06 08:14 40.81220 19.93855 38100 ft 408 kts 277°
2026-05-06 08:14 40.81852 19.86390 38101 ft 409 kts 277°
2026-05-06 08:15 40.82480 19.78913 38098 ft 409 kts 277°
2026-05-06 08:15 40.83104 19.71412 38106 ft 409 kts 277°
2026-05-06 08:16 40.83726 19.63888 38097 ft 408 kts 277°
2026-05-06 08:16 40.84341 19.56383 38095 ft 408 kts 277°
2026-05-06 08:17 40.84945 19.48959 38093 ft 408 kts 276°
2026-05-06 08:17 40.85549 19.41466 38095 ft 408 kts 276°
2026-05-06 08:18 40.86144 19.34029 38089 ft 408 kts 276°
2026-05-06 08:18 40.86736 19.26561 38084 ft 408 kts 276°
2026-05-06 08:19 40.87322 19.19114 38093 ft 408 kts 276°
2026-05-06 08:19 40.87904 19.11650 38093 ft 409 kts 276°
2026-05-06 08:20 40.88484 19.04175 38092 ft 409 kts 276°
2026-05-06 08:20 40.88966 18.97944 38098 ft 409 kts 276°
2026-05-06 08:21 40.89530 18.90426 38094 ft 410 kts 275°
2026-05-06 08:21 40.90062 18.82961 38093 ft 410 kts 275°
2026-05-06 08:22 40.90606 18.75427 38095 ft 410 kts 275°
2026-05-06 08:22 40.91147 18.67920 38093 ft 410 kts 275°
2026-05-06 08:23 40.91684 18.60374 38090 ft 411 kts 275°
2026-05-06 08:23 40.92212 18.52866 38088 ft 411 kts 275°
2026-05-06 08:24 40.92736 18.45342 38086 ft 411 kts 275°
2026-05-06 08:24 40.93254 18.37831 38084 ft 411 kts 275°
2026-05-06 08:25 40.93767 18.30337 38075 ft 411 kts 275°
2026-05-06 08:25 40.94279 18.22776 38074 ft 411 kts 275°
2026-05-06 08:26 40.94782 18.15260 38062 ft 411 kts 274°
2026-05-06 08:26 40.95281 18.07741 38063 ft 411 kts 274°
2026-05-06 08:27 40.95779 18.00164 38057 ft 411 kts 274°
2026-05-06 08:27 40.96270 17.92610 38055 ft 412 kts 274°
2026-05-06 08:28 40.96754 17.85096 38055 ft 412 kts 274°
2026-05-06 08:28 40.97237 17.77527 38051 ft 412 kts 274°
2026-05-06 08:29 40.97713 17.69969 38042 ft 412 kts 274°
2026-05-06 08:29 40.98186 17.62386 38049 ft 413 kts 274°
2026-05-06 08:30 40.98654 17.54818 38050 ft 413 kts 274°
2026-05-06 08:30 40.99117 17.47241 38047 ft 413 kts 274°
2026-05-06 08:31 40.99575 17.39653 38047 ft 414 kts 273°
2026-05-06 08:31 41.00029 17.32059 38044 ft 414 kts 273°
2026-05-06 08:32 41.00479 17.24432 38048 ft 414 kts 273°
2026-05-06 08:32 41.00923 17.16841 38046 ft 414 kts 273°
2026-05-06 08:33 41.01360 17.09269 38055 ft 414 kts 273°
2026-05-06 08:33 41.01794 17.01675 38039 ft 414 kts 273°
2026-05-06 08:34 41.02435 16.90276 38033 ft 413 kts 272°
2026-05-06 08:35 41.02857 16.82658 38029 ft 413 kts 272°
2026-05-06 08:35 41.03272 16.75090 38027 ft 412 kts 272°
2026-05-06 08:36 41.03682 16.67515 38022 ft 412 kts 272°
2026-05-06 08:36 41.04086 16.59938 37996 ft 411 kts 272°
2026-05-06 08:37 41.04484 16.52404 37993 ft 411 kts 272°
2026-05-06 08:37 41.04878 16.44852 37994 ft 411 kts 272°
2026-05-06 08:38 41.05268 16.37263 37995 ft 411 kts 272°
2026-05-06 08:38 41.05653 16.29696 37999 ft 411 kts 272°
2026-05-06 08:39 41.06030 16.22165 38005 ft 411 kts 271°
2026-05-06 08:39 41.06406 16.14567 38012 ft 412 kts 271°
2026-05-06 08:40 41.06776 16.07003 38021 ft 412 kts 271°
2026-05-06 08:40 41.07144 15.99353 38025 ft 413 kts 271°
2026-05-06 08:41 41.07505 15.91750 38025 ft 413 kts 271°
2026-05-06 08:41 41.07862 15.84131 38025 ft 414 kts 271°
2026-05-06 08:42 41.08213 15.76536 38021 ft 414 kts 271°
2026-05-06 08:42 41.08560 15.68896 38022 ft 415 kts 271°
2026-05-06 08:43 41.08903 15.61255 38029 ft 415 kts 271°
2026-05-06 08:43 41.09242 15.53574 38036 ft 416 kts 271°
2026-05-06 08:44 41.09573 15.45964 38028 ft 413 kts 271°
2026-05-06 08:44 41.09900 15.38334 38030 ft 413 kts 270°
2026-05-06 08:45 41.10221 15.30734 38029 ft 413 kts 270°
2026-05-06 08:45 41.10540 15.23120 38036 ft 413 kts 270°
2026-05-06 08:46 41.11047 15.15529 38038 ft 414 kts 277°
2026-05-06 08:46 41.12269 15.08043 38031 ft 415 kts 279°
2026-05-06 08:47 41.13506 15.00558 38030 ft 415 kts 279°
2026-05-06 08:47 41.14723 14.93088 38027 ft 413 kts 278°
2026-05-06 08:48 41.15933 14.85617 38023 ft 413 kts 278°
2026-05-06 08:48 41.17108 14.78150 38018 ft 413 kts 278°
2026-05-06 08:49 41.18068 14.71951 38021 ft 413 kts 278°
2026-05-06 08:49 41.19226 14.64409 38035 ft 412 kts 278°
2026-05-06 08:50 41.20412 14.56905 38041 ft 418 kts 278°
2026-05-06 08:50 41.21607 14.49371 38041 ft 416 kts 278°
2026-05-06 08:51 41.22787 14.41818 38044 ft 417 kts 278°
2026-05-06 08:51 41.23960 14.34298 38044 ft 417 kts 278°
2026-05-06 08:52 41.25144 14.26675 38044 ft 418 kts 278°
2026-05-06 08:52 41.26308 14.19136 38055 ft 419 kts 278°
2026-05-06 08:53 41.27481 14.11499 38052 ft 417 kts 278°
2026-05-06 08:53 41.28638 14.03927 38043 ft 418 kts 278°
2026-05-06 08:54 41.30181 13.97024 38052 ft 423 kts 290°
2026-05-06 08:54 41.33277 13.90106 37921 ft 426 kts 300°
2026-05-06 08:54 41.34777 13.87218 37429 ft 427 kts 300°
2026-05-06 08:55 41.36470 13.83935 36579 ft 431 kts 300°
2026-05-06 08:55 41.38173 13.80618 35519 ft 439 kts 300°
2026-05-06 08:55 41.39923 13.77206 34478 ft 447 kts 300°
2026-05-06 08:55 41.41670 13.73804 33248 ft 448 kts 300°
2026-05-06 08:56 41.43299 13.70217 31923 ft 445 kts 292°
2026-05-06 08:56 41.44510 13.66441 30613 ft 442 kts 285°
2026-05-06 08:56 41.45345 13.62362 29079 ft 440 kts 277°
2026-05-06 08:56 41.45836 13.58418 27865 ft 436 kts 276°
2026-05-06 08:57 41.46331 13.54491 26788 ft 430 kts 276°
2026-05-06 08:57 41.46833 13.50579 25749 ft 423 kts 277°
2026-05-06 08:57 41.47323 13.46745 24746 ft 417 kts 277°
2026-05-06 08:57 41.47806 13.42931 23695 ft 413 kts 276°
2026-05-06 08:58 41.48279 13.39170 22588 ft 408 kts 277°
2026-05-06 08:58 41.48740 13.35482 21683 ft 402 kts 276°
2026-05-06 08:58 41.49192 13.31829 21192 ft 394 kts 277°
2026-05-06 08:58 41.49639 13.28250 20636 ft 387 kts 277°
2026-05-06 08:59 41.50079 13.24712 20060 ft 382 kts 277°
2026-05-06 08:59 41.50509 13.21238 19493 ft 377 kts 277°
2026-05-06 08:59 41.50928 13.17847 18930 ft 373 kts 277°
2026-05-06 08:59 41.51348 13.14440 18318 ft 371 kts 277°
2026-05-06 09:00 41.51763 13.11069 17768 ft 364 kts 277°
2026-05-06 09:00 41.52172 13.07740 17214 ft 359 kts 277°
2026-05-06 09:00 41.52566 13.04519 16682 ft 354 kts 277°
2026-05-06 09:00 41.52956 13.01327 16435 ft 341 kts 277°
2026-05-06 09:01 41.53333 12.98253 16302 ft 327 kts 277°
2026-05-06 09:01 41.53692 12.95311 16177 ft 313 kts 277°
2026-05-06 09:01 41.54270 12.92574 15910 ft 309 kts 291°
2026-05-06 09:01 41.55444 12.90184 15722 ft 305 kts 308°
2026-05-06 09:02 41.57000 12.88210 15637 ft 310 kts 313°
2026-05-06 09:02 41.58575 12.86257 15483 ft 312 kts 313°
2026-05-06 09:02 41.60165 12.84275 15290 ft 307 kts 313°
2026-05-06 09:02 41.61711 12.82345 15101 ft 306 kts 313°
2026-05-06 09:03 41.63271 12.80394 15018 ft 305 kts 313°
2026-05-06 09:03 41.64805 12.78474 15026 ft 304 kts 313°
2026-05-06 09:03 41.66366 12.76519 15013 ft 308 kts 313°
2026-05-06 09:03 41.67942 12.74545 14868 ft 307 kts 313°
2026-05-06 09:04 41.69515 12.72572 14506 ft 309 kts 313°
2026-05-06 09:04 41.71092 12.70594 14120 ft 308 kts 313°
2026-05-06 09:04 41.72651 12.68639 13778 ft 303 kts 313°
2026-05-06 09:04 41.74162 12.66748 13590 ft 296 kts 313°
2026-05-06 09:05 41.75681 12.64839 13401 ft 299 kts 313°
2026-05-06 09:05 41.77201 12.62924 13220 ft 298 kts 313°
2026-05-06 09:05 41.78703 12.61034 13040 ft 296 kts 313°
2026-05-06 09:05 41.80196 12.59154 12858 ft 295 kts 312°
2026-05-06 09:06 41.81699 12.57225 12727 ft 299 kts 311°
2026-05-06 09:06 41.82985 12.55495 12619 ft 293 kts 310°
2026-05-06 09:06 41.83220 12.55175 12596 ft 292 kts 310°
2026-05-06 09:06 41.85134 12.52560 12441 ft 292 kts 310°
2026-05-06 09:07 41.86537 12.50649 12350 ft 286 kts 310°
2026-05-06 09:07 41.87492 12.49355 12296 ft 280 kts 310°
2026-05-06 09:07 41.88840 12.47550 12112 ft 273 kts 313°
2026-05-06 09:07 41.90381 12.46100 11927 ft 271 kts 328°
2026-05-06 09:08 41.92167 12.45196 11821 ft 278 kts 338°
2026-05-06 09:08 41.94035 12.44439 11704 ft 278 kts 338°
2026-05-06 09:08 41.95862 12.43684 11601 ft 276 kts 337°
2026-05-06 09:08 41.97688 12.42923 11468 ft 276 kts 337°
2026-05-06 09:09 41.99551 12.42146 11041 ft 279 kts 337°
2026-05-06 09:09 42.01425 12.41360 10342 ft 291 kts 337°
2026-05-06 09:09 42.03387 12.40371 9439 ft 300 kts 324°
2026-05-06 09:09 42.05010 12.38649 8543 ft 298 kts 309°
2026-05-06 09:10 42.06382 12.36547 7660 ft 300 kts 307°
2026-05-06 09:10 42.07751 12.34383 6802 ft 303 kts 307°
2026-05-06 09:10 42.09099 12.32218 5943 ft 306 kts 307°
2026-05-06 09:10 42.10477 12.29995 5107 ft 307 kts 307°
2026-05-06 09:11 42.11714 12.27731 4619 ft 292 kts 292°
2026-05-06 09:11 42.12225 12.25222 4295 ft 271 kts 270°
2026-05-06 09:11 42.12003 12.22784 4007 ft 250 kts 248°
2026-05-06 09:11 42.11199 12.20766 3942 ft 250 kts 229°
2026-05-06 09:12 42.09911 12.19205 3946 ft 247 kts 210°
2026-05-06 09:12 42.08342 12.18364 3941 ft 249 kts 191°
2026-05-06 09:12 42.06582 12.18298 3952 ft 255 kts 175°
2026-05-06 09:12 42.04832 12.18569 3891 ft 249 kts 175°
2026-05-06 09:13 42.03141 12.18821 3802 ft 240 kts 175°
2026-05-06 09:13 42.01527 12.19164 3734 ft 230 kts 169°
2026-05-06 09:13 42.00007 12.19685 3638 ft 219 kts 167°
2026-05-06 09:13 41.98554 12.20271 3451 ft 214 kts 166°
2026-05-06 09:14 41.97130 12.20868 3043 ft 221 kts 164°
2026-05-06 09:14 41.95659 12.21486 2529 ft 214 kts 164°
2026-05-06 09:14 41.94288 12.22072 2083 ft 201 kts 161°
2026-05-06 09:14 41.92986 12.22615 1722 ft 190 kts 163°
2026-05-06 09:15 41.91779 12.23131 1566 ft 166 kts 161°
2026-05-06 09:15 41.90755 12.23596 1359 ft 148 kts 161°
2026-05-06 09:15 41.89831 12.24002 1105 ft 133 kts 162°
2026-05-06 09:15 41.88986 12.24356 920 ft 125 kts 163°
2026-05-06 09:16 41.88171 12.24659 740 ft 118 kts 162°
2026-05-06 09:16 41.87409 12.24961 560 ft 106 kts 160°
2026-05-06 09:16 41.86725 12.25244 439 ft 106 kts 159°
2026-05-06 09:16 41.85997 12.25571 366 ft 119 kts 159°
2026-05-06 09:17 41.85178 12.25913 221 ft 121 kts 160°
2026-05-06 09:17 41.84371 12.26245 43 ft 118 kts 160°
2026-05-06 09:17 41.83698 12.26530 23 ft 73 kts 162°
2026-05-06 09:17 41.83363 12.26673 20 ft 42 kts 161°
2026-05-06 09:18 41.83100 12.26790 20 ft 37 kts 169°
2026-05-06 09:18 41.82864 12.26860 24 ft 32 kts 171°
2026-05-06 09:18 41.82682 12.26860 22 ft 24 kts 190°
2026-05-06 09:18 41.82512 12.26814 18 ft 26 kts 192°
2026-05-06 09:19 41.82325 12.26782 16 ft 28 kts 173°
2026-05-06 09:19 41.82135 12.26856 14 ft 29 kts 163°
2026-05-06 09:19 41.81947 12.26937 15 ft 26 kts 162°
2026-05-06 09:19 41.81769 12.26918 17 ft 26 kts 189°
2026-05-06 09:20 41.81601 12.26942 22 ft 24 kts 160°
2026-05-06 09:20 41.81430 12.26951 18 ft 25 kts 197°
2026-05-06 09:20 41.81303 12.26835 18 ft 18 kts 231°
2026-05-06 09:20 41.81222 12.26809 16 ft 10 kts 131°
2026-05-06 09:21 41.81249 12.26925 18 ft 20 kts 59°
2026-05-06 09:21 41.81276 12.27072 19 ft 11 kts 136°
2026-05-06 09:21 41.81193 12.27111 16 ft 16 kts 160°
2026-05-06 09:21 41.81063 12.27171 14 ft 23 kts 160°
2026-05-06 09:22 41.80902 12.27242 11 ft 26 kts 166°
2026-05-06 09:22 41.80731 12.27287 14 ft 26 kts 187°
2026-05-06 09:22 41.80620 12.27088 14 ft 32 kts 249°
2026-05-06 09:22 41.80532 12.26789 14 ft 36 kts 251°
2026-05-06 09:23 41.80443 12.26465 16 ft 39 kts 248°
2026-05-06 09:23 41.80348 12.26132 14 ft 36 kts 247°
2026-05-06 09:23 41.80253 12.25813 16 ft 37 kts 254°
2026-05-06 09:23 41.80171 12.25483 19 ft 37 kts 252°
2026-05-06 09:24 41.80077 12.25187 19 ft 23 kts 227°
2026-05-06 09:24 41.79983 12.25166 21 ft 6 kts 121°
2026-05-06 09:24 41.79985 12.25212 19 ft 5 kts 79°
2026-05-06 09:24 41.79976 12.25234 19 ft 2 kts 146°
2026-05-06 09:25 41.79959 12.25241 19 ft 0 kts 172°